West Paducah, KY

4:15 PM CST on February 23, 2017 (GMT -0600)
Barkley Regional

Weather History for KPAH - May, 2013

Change the Weather History Date:

Saturday, May 11, 2013

  Actual Average Record
Temperature  
Mean Temperature 62 °F 66 °F  
Max Temperature 73 °F 77 °F 88 °F (1948)
Min Temperature 50 °F 55 °F 38 °F (1990)
Degree Days  
Heating Degree Days 3 3  
Month to date heating degree days 51 36  
Since 1 July heating degree days 4177 4100  
Cooling Degree Days 0 3  
Month to date cooling degree days 12 27  
Year to date cooling degree days 44 69  
Growing Degree Days 14 (Base 50)    
Moisture  
Dew Point 50 °F    
Average Humidity 66    
Maximum Humidity 93    
Minimum Humidity 39    
Precipitation  
Precipitation 0.00 in 0.17 in 5.65 in (1943)
Month to date precipitation 2.17 1.92  
Year to date precipitation 23.31 18.20  
Snow  
Snow 0.00 in 0.00 in 0.00 in (2002)
Month to date snowfall 0.0 0.0  
Since 1 July snowfall 6.8 9.1  
Snow Depth 0.00 in    
Sea Level Pressure  
Sea Level Pressure 30.00 in    
Wind  
Wind Speed 8 mph (NNW)    
Max Wind Speed 17 mph    
Max Gust Speed 22 mph    
Visibility 10 miles    
Events      
T = Trace of Precipitation, MM = Missing Value Source: NWS Daily Summary

Daily Weather History Graph

Daily Weather History Graph

Search for Another Location

Airport or City:

Trip Planner

Search our weather history database for the weather conditions in past years. The results will help you decide how hot, cold, wet, or windy it might be!

Date:

Astronomy

May. 11, 2013 Rise Set
Actual Time 5:50 AM CDT 7:53 PM CDT
Civil Twilight 5:21 AM CDT 8:22 PM CDT
Nautical Twilight 4:46 AM CDT 8:57 PM CDT
Astronomical Twilight 4:08 AM CDT 9:35 PM CDT
Moon 6:58 AM CDT (5/11) 9:32 PM CDT (5/11)
Length of Visible Light 15h 00m
Length of Day
14h 03m
Waxing Crescent, 3% of the Moon is Illuminated
May 11
Waxing Crescent
May 17
First Quarter
May 24
Full
May 31
Last Quarter
Jun 8
New

Hourly Weather History & Observations

Time (CDT) Temp. Dew Point Humidity Pressure Visibility Wind Dir Wind Speed Gust Speed Precip Events Conditions
12:02 AM 60.8 °F 55.4 °F 82% 29.98 in 10.0 mi NNW 9.2 mph - N/A   Mostly Cloudy
12:53 AM 57.9 °F 54.0 °F 87% 29.97 in 10.0 mi NNW 3.5 mph - N/A   Scattered Clouds
1:53 AM 57.0 °F 53.1 °F 87% 29.96 in 10.0 mi NNW 3.5 mph - N/A   Clear
2:53 AM 55.9 °F 53.1 °F 90% 29.95 in 10.0 mi NNW 5.8 mph - N/A   Clear
3:53 AM 55.0 °F 50.0 °F 83% 29.96 in 10.0 mi NW 5.8 mph - N/A   Clear
4:53 AM 55.0 °F 51.1 °F 86% 29.96 in 10.0 mi NNW 4.6 mph - N/A   Mostly Cloudy
5:53 AM 54.0 °F 51.1 °F 90% 29.97 in 10.0 mi NNW 4.6 mph - N/A   Mostly Cloudy
6:53 AM 55.9 °F 52.0 °F 87% 29.99 in 10.0 mi NW 3.5 mph - N/A   Overcast
7:53 AM 55.9 °F 52.0 °F 87% 29.99 in 10.0 mi NW 4.6 mph - N/A   Overcast
8:53 AM 57.0 °F 50.0 °F 77% 30.01 in 10.0 mi NW 6.9 mph - N/A   Overcast
9:53 AM 59.0 °F 51.1 °F 75% 30.00 in 10.0 mi Variable 5.8 mph - N/A   Overcast
10:53 AM 60.1 °F 51.1 °F 72% 30.02 in 10.0 mi WNW 9.2 mph - N/A   Overcast
11:16 AM 62.6 °F 51.8 °F 68% 30.03 in 10.0 mi WNW 4.6 mph - N/A   Overcast
11:53 AM 64.0 °F 52.0 °F 65% 30.02 in 10.0 mi NNW 6.9 mph - N/A   Mostly Cloudy
12:53 PM 66.0 °F 53.1 °F 63% 30.01 in 10.0 mi NNW 9.2 mph - N/A   Mostly Cloudy
1:53 PM 69.1 °F 51.1 °F 53% 29.99 in 10.0 mi North 9.2 mph 16.1 mph N/A   Partly Cloudy
2:53 PM 70.0 °F 50.0 °F 49% 29.99 in 10.0 mi NW 5.8 mph - N/A   Partly Cloudy
3:53 PM 70.0 °F 48.9 °F 47% 29.98 in 10.0 mi NNW 10.4 mph - N/A   Scattered Clouds
4:53 PM 72.0 °F 50.0 °F 46% 29.96 in 10.0 mi Variable 6.9 mph - N/A   Clear
5:53 PM 69.1 °F 50.0 °F 51% 29.96 in 10.0 mi WNW 9.2 mph - N/A   Mostly Cloudy
6:53 PM 66.0 °F 54.0 °F 65% 29.97 in 10.0 mi North 4.6 mph - N/A   Overcast
7:53 PM 64.0 °F 42.1 °F 45% 30.00 in 10.0 mi North 11.5 mph - N/A   Mostly Cloudy
8:53 PM 62.1 °F 37.9 °F 41% 30.05 in 10.0 mi North 15.0 mph 21.9 mph N/A   Mostly Cloudy
9:53 PM 57.9 °F 37.0 °F 46% 30.08 in 10.0 mi North 15.0 mph - N/A   Clear
10:53 PM 55.9 °F 37.0 °F 49% 30.11 in 10.0 mi North 13.8 mph 18.4 mph N/A   Clear
11:53 PM 52.0 °F 37.0 °F 57% 30.12 in 10.0 mi North 3.5 mph - N/A   Clear